Weather in Antipinka

Russia / Chuvash Republic     55°08′18″N   46°15′01″E
temp.,
°C
wind,
m/s
gust,
m/s
humid.,
%
clouds,
%
prec.,
mm/h
press.,
hPa
HPBL,
m
28 july, wed
wed2800:00+15n226655 0.0 101720
03:00+15ne126892 0.0 101744
06:00+16n23695 0.0 1017121
09:00+21nne33475 0.0 1017801
12:00+24n34395 0.0 10161777
15:00+25nw34340 0.0 10152220
18:00+24nw23430 0.0 1014200
21:00+18s225315 0.0 101411
29 july, thu
thu2900:00+16s3360100 0.0 101341
03:00+16s3860100 0.0 1012162
06:00+17sw51183100 0.3 1011375
09:00+16s3897100 2.6 1010357
12:00+17sse41095100 3.3 1008464
15:00+19se4790100 4.6 1006337
18:00+20se129228 3.0 1003205
21:00+17wnw379898 3.3 1004188
30 july, fri
fri3000:00+17w489764 0.1 1005256
03:00+15w399772 0.1 1006211
06:00+17wsw3893100 0.0 1006247
09:00+22w5771100 0.0 1006539
12:00+27wsw5753100 0.0 10061343
15:00+28w574697 0.0 10051732
18:00+19nw71095100 4.6 1006277
21:00+18s3598100 8.3 1006169
31 july, sat
sat3100:00+18ssw3698100 0.8 1005193
03:00+18ssw3796100 1.0 1005220
06:00+18wsw369539 0.0 1005291
09:00+22w467752 0.0 1005786
12:00+26wnw68567 0.3 10051545
15:00+27w69425 0.3 10052500
18:00+25wnw495275 0.0 1007533
21:00+19sw35641 0.0 100772
1 august, sun
sun100:00+20sw375820 0.0 1008135
03:00+17wsw35664 0.0 100977
06:00+19wsw136946 0.0 1010101
09:00+24w23518 0.0 1011609
12:00+27wsw453833 0.0 10101590
15:00+29wsw563739 0.0 10091767
18:00+27ssw36503 0.0 1008194
21:00+22s411633 0.0 1008190